This is the latest recevied weather packets stored in our database for station/object JS1SZZ-13. If no packets are shown the sender has not sent any weather packets the latest 10 day(s).
| Time | Temp. | Humidity | Pressure | Rain* | Wind** | Luminosity | Snow |
|---|---|---|---|---|---|---|---|
| 1777770300 | 18.89° C | 53% | 1010.7 hPa | 0 mm | - | - | - |
| 1777769400 | 18.33° C | 52% | 1010.6 hPa | 0 mm | - | - | - |
| 1777768500 | 17.78° C | 51% | 1010.8 hPa | 0 mm | - | - | - |
| 1777767599 | 16.67° C | 56% | 1011.2 hPa | 0 mm | - | - | - |
| 1777766700 | 16.11° C | 59% | 1011.4 hPa | 0 mm | - | - | - |
| 1777765800 | 15° C | 57% | 1011.4 hPa | 0 mm | - | - | - |
| 1777764901 | 15° C | 65% | 1011.9 hPa | 0 mm | - | - | - |
| 1777764000 | 14.44° C | 66% | 1011.4 hPa | 0 mm | - | - | - |
| 1777763100 | 13.89° C | 66% | 1012.5 hPa | 0 mm | - | - | - |
| 1777762201 | 13.33° C | 70% | 1012.3 hPa | 0 mm | - | - | - |
| 1777761299 | 12.78° C | 73% | 1012.4 hPa | 0 mm | - | - | - |
| 1777760400 | 11.67° C | 75% | 1012.6 hPa | 0 mm | - | - | - |
| 1777759500 | 11.11° C | 80% | 1012.8 hPa | 0 mm | - | - | - |
| 1777758599 | 10.56° C | 81% | 1012.7 hPa | 0 mm | - | - | - |
| 1777757701 | 10° C | 83% | 1012.6 hPa | 0 mm | - | - | - |
| 1777756800 | 10° C | 82% | 1012.6 hPa | 0 mm | - | - | - |
| 1777755899 | 9.44° C | 86% | 1012.4 hPa | 0 mm | - | - | - |
| 1777755000 | 8.89° C | 86% | 1012.5 hPa | 0 mm | - | - | - |
| 1777754100 | 8.33° C | 87% | 1012 hPa | 0 mm | - | - | - |
| 1777753199 | 8.33° C | 87% | 1012.1 hPa | 0 mm | - | - | - |
| 1777752300 | 8.33° C | 87% | 1012.2 hPa | 0 mm | - | - | - |
| 1777751400 | 8.33° C | 86% | 1011.9 hPa | 0 mm | - | - | - |
| 1777750499 | 8.33° C | 85% | 1011.9 hPa | 0 mm | - | - | - |
| 1777749601 | 8.33° C | 85% | 1011.7 hPa | 0 mm | - | - | - |
| 1777748700 | 8.33° C | 86% | 1011.7 hPa | 0 mm | - | - | - |
* Rain latest hour (hover to see other rain measurements)
** Current wind speed in m/s (hover to see current wind gust speed)